CAPE
0 0 0 0 0 0 2 17 10 0 28 39 82 172 78 534 116 185 164 483 989 649 172 446 870 481 395 444 512 251 28 0 0 0 0 0 0 0 0 0 0 0 0 0 0 0 0 0 0
0 0 0 0 0 0 0 124 108 42 15 143 162 180 251 637 803 482 216 1124 918 424 83 547 619 372 482 487 223 3 0 0 0 0 0 0 0 0 0 0 0 0 0 0 0 0 0 0 0
0 0 0 0 0 0 0 45 238 3 170 75 227 727 1314 1132 845 499 768 1082 828 154 134 549 407 520 548 265 7 0 0 0 0 0 0 0 0 0 0 0 0 0 0 0 0 0 0 0 0
0 0 0 0 0 0 0 0 74 5 386 303 718 1172 1187 1235 842 642 1074 914 485 173 366 448 456 627 432 32 0 0 0 0 0 0 0 0 0 0 0 0 0 0 0 0 0 0 0 0 0
0 0 0 0 0 0 0 0 105 4 340 559 820 1275 1077 1007 908 933 910 554 251 426 381 482 665 548 146 0 0 0 0 0 0 0 0 0 0 0 0 0 0 0 0 0 0 0 0 0 0
2 0 0 0 0 0 0 0 101 26 560 704 1095 1174 1011 867 826 1036 806 377 562 429 483 633 672 296 0 0 0 0 0 0 0 0 0 0 0 0 0 0 0 0 0 0 0 0 0 0 0
20 0 0 0 0 0 0 0 60 31 314 744 1183 1298 1217 872 911 816 759 404 468 388 541 694 261 0 0 0 0 0 0 0 0 0 0 0 0 0 0 0 0 0 0 0 0 0 0 0 0
10 6 0 0 0 0 0 0 33 95 88 884 1170 856 1076 967 911 850 519 499 488 621 695 503 0 0 0 0 0 0 0 0 0 0 0 0 0 0 0 0 0 0 0 0 0 0 0 0 0
47 16 0 0 0 0 0 0 0 76 167 927 431 1020 1054 918 948 933 528 636 480 758 729 172 0 0 0 0 0 0 0 0 0 0 0 0 0 0 0 0 0 0 0 0 0 0 0 0 0
15 1 0 0 0 0 0 0 140 81 0 131 834 1096 951 924 985 797 607 686 539 762 617 250 0 0 0 0 0 0 0 0 0 0 0 0 0 0 0 0 0 0 0 0 0 0 0 0 0
15 0 15 0 0 0 10 0 6 24 0 284 408 1227 951 972 911 669 692 641 890 839 589 0 0 0 0 0 0 0 0 0 0 0 0 0 0 0 0 0 0 0 0 0 0 0 0 0 0
12 15 34 21 3 0 0 0 0 3 10 82 760 1220 949 1006 784 618 583 800 810 708 197 0 0 0 0 0 0 0 0 0 0 0 0 0 0 0 0 0 0 0 0 0 0 0 0 0 0
39 58 50 67 7 0 0 0 0 0 0 8 545 1000 934 887 657 587 432 487 544 640 1 0 0 0 0 0 0 0 0 0 0 0 0 0 0 0 0 0 0 0 0 0 0 0 0 0 0
66 98 54 23 4 0 6 0 0 0 0 0 132 788 786 662 571 404 291 284 483 354 0 0 0 0 0 0 0 0 0 0 0 0 0 0 0 0 0 0 0 0 0 0 0 0 0 0 0
98 6 65 0 0 1 0 0 0 0 0 0 50 504 167 804 578 417 319 229 330 298 0 0 0 0 0 0 0 0 0 0 0 0 0 0 0 0 0 0 0 0 0 0 0 0 0 0 0
40 4 4 0 3 12 9 0 0 0 0 0 77 409 761 867 608 527 356 497 506 226 0 0 0 0 0 0 0 0 0 0 0 0 0 0 0 0 0 0 0 0 0 0 0 0 0 0 0
17 1 1 5 5 4 10 0 0 0 0 0 22 388 626 955 672 666 481 277 413 309 0 0 0 0 0 0 0 0 0 0 0 0 0 0 0 0 0 0 0 0 0 0 0 0 0 0 0
0 0 10 0 5 19 11 0 0 9 0 0 0 402 419 794 793 845 616 391 447 405 0 0 0 0 0 0 0 0 0 0 0 0 0 0 0 0 0 0 0 0 0 0 0 0 0 0 0
6 4 0 11 2 3 3 0 3 0 42 0 0 108 239 491 741 921 652 40 7 0 0 0 0 0 0 0 0 0 0 0 0 0 0 0 0 0 0 0 0 0 0 0 0 0 0 0 0
4 1 0 16 30 2 0 0 0 0 12 68 0 42 334 162 449 148 35 0 0 0 0 0 0 0 0 0 0 0 0 0 0 0 0 0 0 0 0 0 0 0 0 0 0 0 0 0 0
0 1 1 17 0 0 1 0 0 0 0 19 58 15 252 164 82 70 142 1 0 0 0 0 0 0 0 0 0 0 0 0 0 0 0 0 0 0 0 0 0 0 0 0 0 0 0 0 0
1 0 0 8 4 0 2 0 0 0 0 10 91 183 246 581 438 204 59 4 2 2 0 0 0 1 0 0 0 0 0 0 0 0 0 0 0 0 0 0 0 0 0 0 0 0 0 0 0
4 0 0 0 0 9 0 0 0 0 0 1 67 165 360 554 399 274 143 37 4 1 0 0 2 3 3 0 0 0 0 0 0 0 0 0 0 0 0 0 0 0 0 0 0 0 0 0 0
4 0 0 0 0 0 0 0 0 0 0 0 64 214 341 213 154 84 33 0 0 0 1 1 0 0 0 0 0 0 0 0 0 0 0 0 0 0 0 0 0 0 0 0 0 0 0 0 0
0 0 0 0 0 0 0 2 0 0 0 7 80 160 251 195 35 0 0 0 0 0 0 1 0 0 0 0 0 0 0 0 0 0 0 0 0 0 0 0 0 0 0 0 0 0 0 0 0
0 0 1 3 0 0 0 0 0 0 1 0 38 235 220 139 115 1 0 0 0 1 0 0 0 0 0 0 0 0 0 0 0 0 0 0 0 0 0 0 0 0 0 0 0 0 0 0 0
0 0 0 0 0 0 0 0 2 0 0 0 8 149 158 110 42 0 0 0 0 0 0 0 0 0 0 0 0 0 0 0 0 0 0 0 0 0 0 0 0 0 0 0 0 0 0 0 0
0 0 0 0 0 0 0 6 14 0 0 0 0 1 146 37 1 0 0 0 0 0 0 0 0 0 0 0 0 0 0 0 0 0 0 0 0 0 0 0 0 0 0 0 0 0 0 0 0
0 0 0 0 0 0 0 0 0 0 0 0 0 0 14 15 0 0 0 0 0 0 0 0 0 0 0 0 0 0 0 0 0 0 0 0 0 0 0 0 0 0 0 0 0 0 0 0 0
0 0 0 0 0 0 0 0 0 0 0 0 0 0 0 0 0 0 0 0 0 0 0 0 0 0 0 0 0 0 0 0 0 0 0 0 0 0 0 0 0 0 0 0 0 0 0 0 0
CIN
0 0 0 0 0 0 -28 -138 -152 -10 -53 -62 -59 -58 -82 -75 -117 -134 -248 -146 -136 -143 -301 -111 0 -53 -75 -65 -50 -124 -267 0 0 0 0 0 0 0 0 0 0 0 0 0 0 0 0 0 0
0 0 0 0 0 0 0 -79 -63 -37 -45 -87 -55 -67 -58 -92 -159 -146 -221 -78 -120 -198 -399 -92 -41 -108 -56 -64 -165 -86 0 0 0 0 0 0 0 0 0 0 0 0 0 0 0 0 0 0 0
0 0 0 0 0 0 0 -28 -39 -6 -44 -78 -54 -49 -31 -126 -143 -150 -93 -84 -94 -345 -345 -101 -117 -56 -49 -154 -297 0 0 0 0 0 0 0 0 0 0 0 0 0 0 0 0 0 0 0 0
0 0 0 0 0 0 0 -1 -45 -19 -69 -53 -42 -49 -139 -124 -138 -130 -104 -59 -163 -328 -213 -139 -93 -34 -92 -355 0 0 0 0 0 0 0 0 0 0 0 0 0 0 0 0 0 0 0 0 0
0 0 0 0 0 0 0 0 -37 -17 -69 -57 -29 -71 -133 -138 -131 -96 -89 -125 -274 -214 -208 -133 -46 -62 -247 0 0 0 0 0 0 0 0 0 0 0 0 0 0 0 0 0 0 0 0 0 0
-1 0 0 0 0 0 0 0 -33 -54 -27 -41 -26 -109 -148 -169 -124 -95 -79 -180 -162 -219 -147 -76 -66 -163 0 0 0 0 0 0 0 0 0 0 0 0 0 0 0 0 0 0 0 0 0 0 0
-3 0 0 0 0 0 0 0 -12 -16 -19 -22 -32 -48 -129 -178 -136 -115 -90 -166 -192 -211 -120 -58 -211 -53 0 0 0 0 0 0 0 0 0 0 0 0 0 0 0 0 0 0 0 0 0 0 0
-4 -1 0 0 0 0 0 0 -18 -11 -26 -22 -8 -31 -142 -192 -160 -94 -141 -146 -148 -88 -68 -113 -411 0 0 0 0 0 0 0 0 0 0 0 0 0 0 0 0 0 0 0 0 0 0 0 0
-25 0 0 0 0 0 0 0 0 -9 -47 -17 -48 -61 -142 -188 -137 -102 -151 -131 -147 -55 -50 -267 0 0 0 0 0 0 0 0 0 0 0 0 0 0 0 0 0 0 0 0 0 0 0 0 0
-9 -1 0 0 0 0 0 0 -11 -11 0 -13 -25 -130 -223 -163 -127 -145 -163 -146 -151 -72 -80 -200 0 0 0 0 0 0 0 0 0 0 0 0 0 0 0 0 0 0 0 0 0 0 0 0 0
-34 0 -11 0 0 0 -120 0 -7 -16 0 -19 0 -73 -171 -111 -120 -152 -147 -136 -78 -61 -57 -1 0 0 0 0 0 0 0 0 0 0 0 0 0 0 0 0 0 0 0 0 0 0 0 0 0
-2 -2 -23 -20 -16 0 0 0 0 -24 -20 -77 -8 -121 -151 -91 -105 -164 -169 -96 -68 -58 -215 0 0 0 0 0 0 0 0 0 0 0 0 0 0 0 0 0 0 0 0 0 0 0 0 0 0
-4 -9 -9 -11 -6 0 0 0 0 0 0 -82 -45 -92 -115 -109 -108 -139 -161 -112 -69 -38 -89 0 0 0 0 0 0 0 0 0 0 0 0 0 0 0 0 0 0 0 0 0 0 0 0 0 0
-5 -1 -25 -53 -24 -6 -35 0 0 0 0 0 -14 -3 -31 -77 -94 -135 -143 -129 -66 -88 -101 0 0 0 0 0 0 0 0 0 0 0 0 0 0 0 0 0 0 0 0 0 0 0 0 0 0
0 -17 -4 0 0 -18 -39 0 0 0 0 0 -6 -20 -21 -16 -60 -127 -120 -124 -80 -89 0 0 0 0 0 0 0 0 0 0 0 0 0 0 0 0 0 0 0 0 0 0 0 0 0 0 0
-4 -3 0 0 -22 -57 -17 0 0 0 0 0 -7 -33 -16 -1 -61 -78 -89 -46 -38 -68 0 0 0 0 0 0 0 0 0 0 0 0 0 0 0 0 0 0 0 0 0 0 0 0 0 0 0
-8 -2 -4 -8 -20 -21 -6 0 0 0 0 0 -3 -15 -13 -2 -15 -28 -78 -76 -43 -35 0 0 0 0 0 0 0 0 0 0 0 0 0 0 0 0 0 0 0 0 0 0 0 0 0 0 0
0 0 -14 -9 -40 -9 -1 0 0 -13 0 0 0 -9 -34 -10 -2 -7 -39 -53 -7 -8 0 0 0 0 0 0 0 0 0 0 0 0 0 0 0 0 0 0 0 0 0 0 0 0 0 0 0
-6 -2 0 -14 -44 -2 -5 0 -38 0 -11 0 0 -9 -22 -35 -16 -3 -6 -115 -246 0 0 0 0 0 0 0 0 0 0 0 0 0 0 0 0 0 0 0 0 0 0 0 0 0 0 0 0
-1 -1 -1 -4 -3 -1 -3 0 0 -36 -3 -13 0 -4 -17 -44 -9 -37 -90 -58 0 0 0 0 0 0 0 0 0 0 0 0 0 0 0 0 0 0 0 0 0 0 0 0 0 0 0 0 0
-5 -2 -3 -18 -1 -1 -1 0 0 0 0 -3 -4 -10 -14 -31 -53 -117 -68 -12 0 0 0 0 0 0 0 0 0 0 0 0 0 0 0 0 0 0 0 0 0 0 0 0 0 0 0 0 0
-2 0 0 -20 -3 -2 -8 0 0 0 0 -4 -10 -8 -16 -2 -4 -89 -37 -6 0 0 0 0 0 0 0 0 0 0 0 0 0 0 0 0 0 0 0 0 0 0 0 0 0 0 0 0 0
-21 0 0 0 -2 -12 0 0 0 0 0 -3 -10 -18 -6 -3 -4 -3 -22 -33 -75 0 0 0 0 0 0 0 0 0 0 0 0 0 0 0 0 0 0 0 0 0 0 0 0 0 0 0 0
-18 0 0 0 0 0 0 0 0 0 0 0 -7 -13 -8 -14 -30 -21 -73 0 0 0 0 0 0 0 0 0 0 0 0 0 0 0 0 0 0 0 0 0 0 0 0 0 0 0 0 0 0
0 0 0 0 -4 0 0 -5 0 0 0 -6 -7 -18 -16 -10 -64 0 -18 0 0 0 0 0 0 0 0 0 0 0 0 0 0 0 0 0 0 0 0 0 0 0 0 0 0 0 0 0 0
0 0 -7 -2 -1 0 0 0 0 0 -3 0 -41 -29 -51 -43 -27 0 0 0 0 0 0 0 0 0 0 0 0 0 0 0 0 0 0 0 0 0 0 0 0 0 0 0 0 0 0 0 0
0 0 0 0 0 0 -3 -2 -11 0 0 0 -57 -15 -46 -48 -65 0 0 0 0 0 0 0 0 0 0 0 0 0 0 0 0 0 0 0 0 0 0 0 0 0 0 0 0 0 0 0 0
0 0 0 0 0 0 -11 -24 -40 0 0 0 0 -17 -66 -119 -71 0 0 0 0 0 0 0 0 0 0 0 0 0 0 0 0 0 0 0 0 0 0 0 0 0 0 0 0 0 0 0 0
0 0 0 0 0 0 0 -4 0 0 0 0 0 0 -83 -150 0 0 0 0 0 0 0 0 0 0 0 0 0 0 0 0 0 0 0 0 0 0 0 0 0 0 0 0 0 0 0 0 0
0 0 0 0 0 0 0 0 0 0 0 0 0 0 -10 0 0 0 0 0 0 0 0 0 0 0 0 0 0 0 0 0 0 0 0 0 0 0 0 0 0 0 0 0 0 0 0 0 0
Wind_Speed
28 27 25 25 27 29 38 32 32 32 19 15 19 13 14 14 15 16 7 5 9 8 7 7 7 6 7 7 8 9 11 12 13 14 15 16 16 17 18 19 21 23 24 26 27 27 27 27 26
27 27 24 26 36 43 39 33 28 26 19 16 16 17 15 16 12 3 1 9 8 7 7 5 5 7 6 8 9 11 13 14 15 15 15 16 17 17 18 20 21 24 25 26 27 27 27 27 27
25 25 27 31 42 48 39 28 29 21 19 19 15 16 16 15 9 2 5 9 9 7 6 5 6 7 8 9 11 13 14 15 16 16 16 16 16 17 18 20 22 24 25 26 27 27 28 28 28
22 23 30 41 46 40 41 35 22 21 20 21 15 16 15 14 2 5 8 8 8 6 5 6 7 6 7 8 10 13 16 17 16 16 16 16 17 18 19 20 22 24 25 26 27 28 28 29 29
25 27 38 46 49 45 33 43 20 23 22 25 23 17 14 11 8 6 7 6 6 5 4 5 4 5 5 7 11 15 17 17 17 16 15 16 16 17 19 20 22 24 25 26 28 29 29 29 29
29 29 40 50 46 44 42 39 24 24 20 22 23 19 19 13 10 3 7 6 5 5 5 3 4 3 5 8 12 16 18 19 17 16 15 16 17 18 19 20 22 23 25 26 28 29 29 29 29
32 36 45 46 42 45 45 39 24 23 21 23 19 20 18 14 12 5 5 5 5 5 4 3 3 2 4 7 12 16 18 19 18 17 16 16 17 18 19 20 22 23 25 26 28 28 28 28 29
29 34 44 45 46 43 40 44 29 31 28 15 22 25 22 19 10 8 5 4 5 5 4 3 3 2 3 6 11 15 17 18 18 17 17 17 18 18 19 20 22 23 24 26 27 28 28 27 26
24 35 43 43 44 44 36 41 38 31 29 25 22 20 13 16 13 13 8 6 6 6 5 3 3 3 3 6 10 13 16 17 18 17 17 16 17 18 19 20 21 23 23 25 26 27 28 30 26
25 36 41 37 37 41 39 35 33 36 44 38 22 13 14 17 18 15 12 10 8 8 7 4 3 3 4 5 10 12 14 16 16 16 16 16 17 17 18 20 21 22 24 24 25 26 29 30 29
24 38 34 37 36 31 34 33 30 34 54 30 17 17 14 18 19 19 16 12 11 8 7 4 2 1 2 4 7 9 10 11 14 15 15 15 16 16 18 19 21 22 24 25 26 27 28 29 29
28 30 37 34 34 32 34 33 35 34 43 29 28 13 17 20 20 19 18 15 11 9 8 6 4 3 4 4 5 7 9 10 12 14 14 15 16 18 19 20 21 22 23 25 26 27 28 29 29
29 31 29 34 34 34 34 36 37 40 36 32 24 20 23 21 20 18 19 16 14 12 9 6 6 5 5 5 5 6 8 9 11 13 15 15 16 18 19 20 21 22 23 24 26 27 28 29 29
22 27 27 27 34 36 39 40 36 38 36 35 27 26 26 24 21 18 18 19 18 14 10 9 8 6 6 7 6 6 7 9 11 13 14 16 17 18 19 19 20 22 23 24 26 27 28 29 29
25 24 25 28 34 36 36 48 49 41 43 41 30 26 29 25 22 19 19 19 19 16 11 10 9 7 7 7 6 7 7 9 11 12 14 15 17 18 19 19 20 21 22 24 26 27 28 29 29
18 20 24 27 27 34 34 52 45 42 44 46 36 31 30 26 25 20 18 16 18 17 14 12 10 8 7 7 7 7 8 9 11 12 13 15 17 19 19 19 20 21 22 23 26 27 28 29 30
8 20 20 26 24 27 34 40 45 42 48 49 39 32 23 27 27 26 21 17 18 17 15 14 11 9 7 7 8 9 9 10 11 12 14 16 17 18 19 20 20 21 22 23 26 27 28 29 30
15 12 22 22 20 20 31 41 40 35 40 47 43 34 31 29 30 26 25 19 20 17 14 13 12 10 8 8 9 10 11 12 12 13 13 15 17 18 19 19 20 21 22 24 25 27 29 28 31
24 21 25 22 23 19 31 36 38 36 34 40 40 38 35 30 30 28 25 20 15 13 14 13 11 10 9 10 9 12 12 12 13 14 16 17 17 18 19 19 20 21 22 23 26 27 29 29 32
8 25 25 23 23 14 26 36 41 37 35 35 44 39 36 34 28 26 25 20 19 15 14 12 13 12 12 13 15 16 14 14 12 13 15 17 17 18 18 19 20 21 22 24 26 27 29 28 31
10 16 26 25 19 6 22 34 38 43 39 33 36 40 36 35 41 16 26 23 20 17 15 14 14 12 12 12 13 12 15 15 17 14 15 16 16 17 18 19 20 21 22 24 25 27 28 29 29
11 11 22 23 23 22 1 32 34 40 44 37 35 34 35 35 33 24 22 25 23 19 15 13 11 12 9 16 14 16 14 14 16 14 14 16 16 17 17 18 19 21 22 24 25 27 27 28 29
9 8 10 12 22 27 16 27 32 33 44 39 35 34 31 31 29 28 25 23 22 18 14 12 12 16 16 12 13 9 11 10 11 13 12 13 13 16 17 18 19 21 22 24 26 27 28 28 28
8 8 10 12 10 21 6 23 29 31 38 37 32 32 28 28 25 23 16 14 17 17 18 16 16 18 12 4 9 8 9 8 9 11 13 13 13 14 18 19 20 21 23 25 26 27 28 29 28
13 14 12 12 13 11 10 9 27 20 24 31 31 30 28 27 26 24 24 19 10 14 15 8 11 11 9 9 7 9 9 9 10 11 12 13 14 16 18 19 21 23 24 25 26 27 28 28 30
12 14 12 13 11 4 10 20 18 24 20 24 28 28 26 26 26 25 25 23 20 16 16 14 11 9 7 7 8 9 9 10 11 13 13 14 15 17 19 20 22 23 25 26 27 28 29 30 31
15 11 10 9 6 8 10 9 10 19 24 23 25 26 26 26 22 22 21 23 24 22 14 6 7 6 3 6 5 7 7 10 11 12 13 14 16 17 19 22 23 25 26 27 29 30 31 32 33
11 10 13 11 11 10 12 7 8 7 22 21 24 26 22 20 19 17 16 18 18 16 14 8 4 6 6 4 4 7 7 8 10 12 14 16 17 19 21 23 25 26 28 30 31 32 33 34 35
12 9 10 9 7 8 9 10 12 11 5 15 21 26 23 21 20 18 14 12 12 11 10 9 8 8 6 5 6 8 9 9 11 14 16 17 19 21 23 25 27 29 31 32 33 34 34 36 36
8 7 8 9 9 7 7 6 12 15 13 11 12 12 17 17 17 15 12 10 9 9 8 8 9 8 7 7 7 8 9 11 13 15 17 19 21 23 25 27 29 30 31 32 34 35 35 37 38
Wind_Direction
280 276 274 276 266 264 256 258 257 260 276 277 267 274 268 295 266 271 81 76 102 108 105 95 76 56 43 27 22 18 20 20 20 19 17 15 11 11 9 8 8 13 18 24 31 35 32 34 32
279 273 270 266 257 252 254 257 256 263 268 270 268 265 268 276 292 316 28 97 106 114 106 105 80 64 46 42 30 28 29 31 29 25 20 18 16 13 8 9 13 18 20 25 32 36 33 32 28
276 271 260 256 253 248 252 259 258 266 259 259 264 273 269 276 292 314 84 104 113 117 110 103 85 71 57 44 42 40 41 41 38 33 25 21 15 12 9 12 15 21 24 24 25 33 29 23 21
275 267 261 251 250 253 252 253 261 254 262 255 258 264 268 287 309 282 102 116 121 126 126 105 88 71 58 42 37 45 51 51 43 33 28 21 18 14 12 12 16 19 22 23 23 28 29 20 20
268 262 251 249 249 252 255 246 264 256 259 249 249 254 259 268 293 101 112 131 143 141 138 107 91 74 48 35 43 54 57 54 46 36 28 24 19 16 14 12 16 18 20 18 18 21 22 17 17
263 259 250 247 250 251 252 250 255 252 256 251 249 249 250 260 251 175 128 139 145 145 153 125 95 72 43 39 49 58 63 63 52 39 29 25 23 19 15 15 15 18 18 16 17 18 21 16 15
261 256 251 251 252 249 246 245 251 247 248 245 252 249 249 245 235 173 196 158 143 162 152 126 101 63 37 37 50 59 68 67 60 46 34 30 26 21 17 15 15 17 16 15 17 20 23 23 17
268 260 252 250 248 250 249 244 256 251 249 241 244 248 244 230 212 187 195 177 172 179 174 142 105 54 22 25 46 57 66 66 63 55 47 42 33 23 16 15 16 18 17 19 22 25 24 27 31
279 257 250 250 248 248 255 248 250 246 252 243 214 240 227 202 190 221 183 195 187 197 174 152 115 70 37 37 46 55 64 66 65 62 58 54 33 24 17 17 17 18 18 18 21 25 19 10 27
272 257 252 255 256 252 257 256 249 244 243 247 225 206 168 186 206 212 207 207 199 200 202 206 148 96 58 31 65 59 68 72 73 69 62 41 25 23 24 18 16 13 11 15 15 23 13 12 14
279 257 261 255 260 263 260 255 260 245 240 255 264 218 186 195 208 215 219 214 212 200 206 208 202 131 4 13 52 32 26 32 46 44 34 33 28 25 17 15 10 5 3 7 8 10 10 10 10
273 269 259 261 267 258 253 258 252 248 244 263 256 237 208 200 206 211 217 218 213 202 218 213 222 255 287 325 2 16 19 23 30 31 33 20 16 8 8 9 7 3 358 359 4 5 4 9 7
269 267 272 264 264 259 255 253 251 250 252 258 274 229 218 201 200 207 218 221 218 223 209 220 232 253 277 301 338 359 2 6 14 22 11 6 360 356 360 3 4 3 358 357 357 360 1 4 0
286 273 272 272 263 260 251 251 252 247 252 253 258 246 220 216 206 202 211 218 220 227 226 230 240 255 272 295 322 345 355 4 9 23 12 357 358 354 350 356 0 359 357 354 355 356 356 359 358
278 279 275 271 263 257 257 247 243 248 248 249 257 238 220 207 213 213 215 218 221 229 225 230 239 256 272 290 313 328 348 357 1 8 11 3 353 352 352 354 355 355 356 353 352 357 355 356 357
296 289 274 262 264 258 254 242 248 247 245 243 252 249 242 236 225 225 220 218 222 224 231 232 242 252 266 280 303 323 337 344 351 359 2 354 349 345 348 352 353 352 351 354 351 353 353 353 354
335 292 292 277 277 264 249 249 245 248 241 242 247 247 247 233 232 231 226 221 224 226 228 232 237 245 258 278 295 308 319 331 346 351 351 338 342 343 345 348 350 350 350 351 351 351 354 351 351
354 200 284 294 292 274 251 248 245 258 240 242 245 242 241 236 234 231 229 226 229 228 225 232 238 245 257 274 292 301 309 319 333 338 342 340 337 341 343 346 349 348 349 349 349 350 349 354 350
288 300 261 290 286 286 256 252 247 251 246 245 244 242 238 238 239 235 229 223 220 221 222 234 237 246 261 275 286 293 297 310 324 328 330 334 336 337 341 344 347 346 346 349 347 348 347 350 350
161 291 272 281 296 306 274 255 247 249 248 247 241 245 239 237 244 226 224 221 225 221 227 236 247 257 272 282 288 296 292 307 320 325 326 330 334 334 341 343 343 345 345 347 347 348 346 349 350
164 212 263 267 321 3 290 261 249 245 248 250 244 244 238 237 235 245 231 228 228 228 230 239 252 265 277 281 290 303 293 304 308 314 321 327 333 336 340 340 344 343 344 345 346 348 347 346 349
173 181 265 308 314 301 332 264 251 243 242 245 244 240 238 238 238 238 240 240 237 236 235 241 251 261 279 278 295 283 302 311 312 317 312 316 324 330 340 339 342 342 343 343 344 346 346 345 343
130 168 210 193 239 292 306 271 255 246 238 241 241 238 240 237 235 235 240 240 239 235 237 242 237 276 294 293 283 300 323 336 338 322 332 333 342 341 335 337 339 341 342 343 342 342 342 343 342
145 189 164 161 154 309 161 279 264 252 237 238 239 237 236 232 228 231 231 250 236 249 246 260 266 272 275 275 298 305 321 333 333 325 326 337 343 341 336 336 338 341 340 339 341 341 341 339 340
108 90 102 91 69 359 179 299 264 269 248 240 240 235 234 233 232 233 237 241 275 257 249 255 257 272 280 281 312 319 317 317 321 324 328 327 330 330 334 337 337 338 338 339 340 339 339 339 337
110 88 94 78 69 156 79 323 296 259 265 256 249 232 234 235 237 241 244 248 250 264 258 274 265 278 286 302 316 321 324 325 330 327 325 330 334 332 335 337 337 338 338 339 338 338 336 335 334
95 108 94 84 124 93 88 84 84 268 260 262 245 237 234 235 238 242 248 249 250 256 268 274 276 265 292 315 5 341 2 336 335 335 336 334 336 336 337 334 334 335 337 336 335 334 333 332 331
117 110 88 96 80 79 56 168 114 48 264 261 246 241 243 237 240 246 249 250 251 257 260 263 264 278 290 343 7 346 359 3 340 334 333 333 335 336 334 332 332 333 333 333 332 331 331 330 329
84 92 97 100 120 88 82 82 67 151 60 280 259 247 245 244 244 247 252 253 250 250 252 256 265 273 295 332 350 342 339 351 337 331 330 330 333 332 331 331 330 329 330 332 331 330 330 329 328
75 87 92 82 83 113 101 130 102 357 338 307 279 261 249 246 246 246 245 246 245 247 254 262 271 280 298 334 351 344 342 340 334 330 330 329 328 328 328 329 329 330 331 331 330 329 330 329 327